Location: Plzen
(49.7500°N, 13.3670°E)
Time: 04:37:27
(UTC+02:00)

ISS - Pass Details

Date: 21 May 2021
Orbit: 417 x 422 km, 51.6° (Epoch: 13 June)

Event Time Altitude Azimuth Distance (km) Brightness Sun altitude
Rises 00:31:51 0° 287° (WNW) 2,369 0.4 -19.7°
Reaches altitude 10° 00:33:57 10° 287° (WNW) 1,505 -0.7 -19.8°
Enters shadow 00:37:08 76° 258° (WSW) 437 -3.8 -19.8°
